Wind_Speed
22 23 25 25 26 26 27 27 27 26 27 27 27 28 30 31 32 33 34 34 34 35 36 38 39 39 39 39 40 39 39 39 38 38 38 38 38 38 38 38 38 38 37 37
22 23 24 24 26 26 26 26 27 27 27 27 28 28 29 30 32 32 33 33 33 34 35 36 37 37 38 39 39 39 38 38 38 38 38 38 38 38 38 38 38 39 38 38
21 22 23 24 24 24 24 25 26 28 27 28 28 28 28 29 31 31 32 33 33 33 34 34 34 35 36 37 37 37 37 37 37 38 38 39 39 38 38 38 38 38 38 38
20 22 24 23 23 23 24 24 25 26 27 28 29 29 30 30 30 31 32 33 33 33 33 33 34 34 35 36 37 37 37 37 37 37 37 37 37 37 37 37 38 38 38 38
19 20 21 22 23 23 24 25 26 27 27 27 28 29 29 30 29 30 32 33 33 33 33 33 34 34 34 35 36 36 36 36 36 36 36 37 37 37 36 37 37 37 37 37
20 21 21 23 24 24 25 26 26 27 27 27 27 28 28 29 29 29 31 32 33 32 32 33 34 34 34 34 34 34 34 34 34 35 35 35 36 36 36 36 36 36 36 36
20 22 22 23 23 24 25 25 26 25 26 26 27 27 27 28 29 29 29 30 31 32 32 32 33 34 33 33 33 33 33 33 34 34 34 35 35 35 35 35 35 36 36 36
20 21 22 22 23 23 23 24 25 26 26 26 26 27 28 27 28 29 29 29 30 31 32 31 32 32 32 32 32 33 33 34 34 34 34 34 34 34 35 35 35 36 36 36
20 20 21 22 23 23 22 23 23 24 25 25 25 26 27 27 28 29 29 30 30 30 31 31 31 31 31 31 32 32 33 33 32 32 33 33 33 34 34 34 35 35 35 35
18 19 21 22 23 24 24 24 24 23 24 25 25 25 25 26 27 28 28 29 30 30 30 30 32 32 32 31 31 32 32 32 32 32 32 32 32 33 33 34 34 35 35 34
18 18 19 21 22 22 23 23 23 23 24 24 25 26 26 26 27 28 28 28 29 30 30 30 30 31 32 32 31 31 32 32 32 32 32 31 31 31 32 33 33 34 34 34
18 17 18 18 19 20 21 22 22 23 23 23 24 24 24 25 26 26 27 28 28 29 29 29 29 30 30 30 31 31 32 32 32 31 31 31 31 31 32 32 33 33 33 33
19 18 17 17 17 18 19 20 21 21 22 22 23 23 23 23 24 25 26 26 27 28 28 29 29 29 29 30 31 31 31 31 31 31 31 31 31 31 31 31 31 31 31 31
18 17 17 16 16 16 16 18 19 20 21 21 21 21 22 23 23 23 24 25 26 27 28 28 29 29 29 29 30 29 29 29 29 29 29 29 30 30 30 30 29 29 29 29
16 16 16 16 16 16 16 17 18 19 19 20 21 21 21 22 23 23 24 24 25 26 27 28 29 29 29 30 30 29 29 28 28 28 28 28 28 29 28 28 27 26 27 27
16 16 16 17 17 17 17 17 17 18 18 19 20 21 21 21 22 23 23 24 25 26 26 27 28 29 30 29 29 28 28 27 27 26 27 26 26 26 26 25 25 24 25 25
16 16 16 16 17 17 18 18 18 18 18 18 19 19 20 21 22 22 23 23 24 25 26 27 27 27 28 27 27 27 27 27 26 26 25 25 24 24 23 23 23 23 23 22
16 16 17 18 18 18 18 19 19 19 19 19 19 19 19 20 21 22 22 23 23 24 25 26 26 26 26 26 26 26 27 26 25 25 25 24 24 23 23 22 22 21 21 21
17 17 18 19 19 19 19 19 20 20 20 20 20 21 20 20 20 20 21 22 23 24 25 26 26 26 26 26 25 25 25 25 25 24 24 24 23 23 22 21 20 20 21 21
17 17 18 19 19 20 20 20 20 21 21 21 21 21 21 21 21 21 21 21 22 23 24 25 25 26 26 26 25 25 24 25 25 24 24 23 23 22 22 22 21 21 21 21
17 17 18 18 19 20 20 20 20 21 21 22 22 22 22 22 21 21 21 21 22 22 23 23 23 24 25 25 25 25 24 25 25 24 23 23 22 22 23 22 22 22 21 21
18 17 18 18 18 18 19 19 20 20 20 21 21 21 22 22 21 21 21 21 20 21 21 21 22 22 23 23 23 24 24 24 25 24 23 22 22 22 22 22 22 22 22 22
17 17 17 18 17 18 18 18 18 18 18 19 19 20 20 20 20 21 21 20 20 19 19 20 20 21 21 22 22 22 22 23 24 23 23 22 22 21 22 22 22 21 21 21
18 18 17 17 17 17 17 17 17 17 17 18 18 18 19 19 20 20 20 20 19 19 19 19 19 20 20 20 21 21 21 22 22 22 22 22 22 22 22 21 21 21 21 20
18 17 17 17 16 16 16 16 16 16 16 16 17 17 18 18 18 19 19 19 19 19 19 19 19 19 19 20 20 21 21 21 22 22 21 21 21 21 21 21 21 21 20 20
17 17 16 16 15 14 14 14 14 14 15 15 15 15 15 16 16 17 17 17 17 17 17 18 18 18 18 19 19 20 21 21 21 21 21 21 21 21 21 21 21 21 20 20
17 17 16 15 14 14 14 13 13 13 14 14 14 14 14 15 15 16 16 16 16 16 17 17 17 17 17 17 18 18 19 20 20 20 20 20 20 20 20 20 20 20 19 19
Wind_Direction
245 242 241 240 238 239 238 238 242 244 246 246 246 244 242 242 242 242 241 239 238 238 239 240 239 240 241 242 243 243 244 245 247 247 248 250 251 253 256 258 259 262 265 267
247 243 242 239 240 242 241 241 243 244 244 244 244 244 242 242 243 242 241 239 238 238 240 241 241 241 241 241 243 243 244 245 246 247 248 249 251 254 256 258 260 262 264 268
250 246 242 239 241 243 243 243 244 246 245 244 245 245 243 243 243 243 240 239 239 239 240 241 240 240 240 240 242 243 244 246 246 247 248 250 251 254 256 259 261 263 265 267
253 250 245 242 244 244 244 243 246 247 247 248 247 246 246 245 245 243 241 239 239 239 240 241 241 241 242 242 242 243 244 246 247 247 248 249 251 254 257 260 262 264 265 268
253 254 249 245 246 247 247 247 248 248 247 248 246 245 245 245 244 243 241 239 240 239 240 240 241 242 242 243 242 243 244 246 246 247 248 249 251 254 257 260 262 264 266 268
252 253 252 249 249 251 252 252 251 249 248 248 248 247 245 245 244 243 241 240 240 240 240 240 240 241 242 242 242 242 243 245 246 247 248 250 252 255 258 260 263 265 266 269
253 255 254 253 251 252 253 254 252 252 249 247 246 247 244 244 243 243 241 239 240 241 242 241 240 241 242 243 242 242 243 244 246 248 250 252 253 256 259 261 263 265 267 269
255 256 256 255 254 255 256 255 254 252 250 248 247 245 244 243 243 242 240 238 239 240 241 240 240 240 242 243 244 243 244 246 247 249 252 253 255 256 258 260 263 265 267 269
258 258 258 259 256 256 256 255 255 254 250 249 247 246 245 243 243 242 241 240 240 239 240 240 240 240 242 244 245 246 246 246 248 250 253 254 256 257 258 260 262 264 267 269
259 257 259 260 259 257 256 255 254 253 251 248 246 245 244 243 242 241 241 241 240 239 240 240 241 241 242 244 245 247 248 249 250 252 253 255 256 258 259 261 262 264 266 268
261 260 259 259 260 260 259 256 254 254 254 251 247 246 245 243 241 240 240 241 241 240 240 240 241 242 242 243 245 247 249 251 252 253 253 255 256 258 259 261 263 265 267 269
262 263 262 262 262 261 258 256 256 255 254 251 249 247 247 244 242 242 242 242 242 240 239 239 241 242 243 244 246 249 251 252 253 254 255 255 256 258 260 262 263 265 268 270
262 262 262 262 263 262 258 256 256 256 255 254 252 250 248 245 244 244 244 243 242 241 240 239 240 242 243 244 247 249 252 253 254 255 256 257 258 259 260 262 265 267 268 269
265 262 260 260 261 262 260 258 257 255 253 253 253 251 248 246 246 246 246 244 243 242 241 241 241 242 243 245 246 249 252 254 255 255 257 258 259 260 261 262 264 265 266 268
264 262 260 259 259 261 261 260 258 255 254 252 251 249 247 246 246 246 247 245 243 242 241 242 242 244 246 247 248 249 251 253 255 255 256 258 259 259 259 260 262 263 265 267
263 263 262 261 262 262 262 262 260 257 254 252 251 249 249 248 248 248 248 247 245 243 243 243 244 246 247 248 248 249 249 251 254 255 255 255 256 257 256 258 260 262 265 266
266 264 264 264 265 265 265 263 261 258 256 253 252 251 251 252 251 249 248 248 248 246 245 245 245 245 245 245 246 246 247 249 252 253 254 254 253 253 254 256 259 261 262 263
272 270 267 267 269 268 266 263 260 258 257 255 254 254 254 255 254 252 251 250 251 249 247 246 245 245 245 245 245 246 246 247 248 250 251 251 250 251 252 255 258 260 261 263
272 271 271 271 271 271 268 265 262 260 259 257 256 257 258 259 257 255 252 251 252 250 248 247 245 244 243 244 245 245 245 245 246 247 248 248 248 249 250 252 255 258 261 263
274 273 273 272 272 271 269 267 265 262 260 258 257 258 260 260 258 256 254 254 254 252 249 247 245 243 242 243 244 244 244 243 243 244 245 247 248 248 248 250 253 257 259 262
278 277 275 275 275 273 272 270 268 265 261 258 257 259 260 259 258 257 255 255 255 252 249 246 245 243 242 242 243 243 242 241 241 242 245 246 248 250 250 252 253 255 257 262
279 279 278 278 277 275 274 273 270 267 262 260 260 260 259 258 256 255 254 254 253 251 249 246 244 243 242 241 242 242 241 239 239 240 243 245 248 250 250 251 252 254 258 262
279 279 280 280 279 277 275 274 271 267 264 262 261 260 259 256 254 252 252 252 251 249 247 245 243 241 240 241 240 239 239 239 238 239 241 244 247 247 247 250 252 255 259 263
277 278 279 279 278 277 275 274 271 268 265 263 261 260 258 256 254 252 251 250 250 249 247 245 243 241 240 240 240 238 238 238 238 238 240 242 244 245 246 249 252 255 259 262
278 277 276 277 277 277 275 273 271 268 266 263 261 260 259 257 254 251 251 250 250 249 246 244 243 243 242 241 240 239 239 238 238 238 239 240 241 245 247 249 252 255 257 257
276 274 274 274 275 276 276 275 272 269 265 262 260 259 257 255 253 251 249 249 248 246 243 241 241 241 243 243 241 240 240 239 238 239 239 239 241 245 247 248 251 254 254 251
272 271 270 270 271 272 274 275 274 270 266 263 261 259 258 256 254 252 250 249 247 244 241 241 241 241 242 242 241 241 240 239 238 236 237 239 242 245 248 250 252 251 250 250
Height
5542 5545 5547 5550 5553 5555 5558 5561 5564 5567 5569 5572 5574 5576 5579 5582 5585 5589 5592 5597 5601 5605 5608 5612 5616 5620 5624 5627 5631 5635 5639 5642 5646 5649 5651 5654 5657 5659 5661 5664 5665 5666 5667 5668
5538 5540 5542 5544 5547 5549 5552 5555 5558 5560 5563 5565 5567 5569 5572 5575 5578 5581 5585 5589 5593 5596 5600 5603 5607 5611 5615 5618 5622 5626 5630 5633 5636 5639 5642 5645 5648 5650 5652 5654 5656 5657 5658 5659
5533 5535 5536 5540 5543 5545 5547 5550 5552 5554 5558 5559 5561 5563 5565 5568 5571 5574 5578 5581 5585 5588 5592 5595 5598 5602 5606 5609 5613 5617 5621 5624 5627 5630 5633 5636 5639 5641 5643 5645 5647 5648 5649 5649
5528 5530 5532 5538 5538 5540 5542 5544 5546 5548 5550 5552 5554 5557 5558 5561 5564 5567 5570 5574 5577 5580 5584 5587 5590 5594 5597 5601 5604 5608 5611 5615 5618 5621 5624 5626 5629 5632 5634 5635 5637 5638 5639 5640
5523 5524 5527 5531 5532 5534 5536 5538 5540 5541 5543 5545 5547 5550 5552 5554 5557 5559 5562 5566 5569 5572 5576 5579 5582 5585 5589 5592 5595 5599 5603 5606 5609 5612 5614 5617 5620 5622 5624 5626 5627 5628 5629 5630
5519 5520 5522 5526 5527 5528 5530 5532 5534 5535 5537 5538 5540 5543 5546 5547 5549 5552 5555 5558 5561 5564 5567 5571 5574 5577 5580 5583 5587 5590 5594 5597 5600 5603 5605 5608 5610 5613 5614 5616 5618 5619 5620 5620
5514 5515 5517 5520 5521 5522 5525 5527 5528 5528 5530 5532 5534 5536 5538 5540 5542 5545 5547 5550 5553 5556 5559 5562 5565 5569 5572 5575 5578 5582 5585 5588 5591 5594 5596 5599 5601 5603 5605 5607 5608 5609 5610 5611
5509 5511 5515 5514 5515 5517 5519 5519 5520 5522 5523 5525 5527 5529 5531 5533 5535 5537 5540 5543 5546 5549 5551 5554 5557 5561 5564 5567 5570 5573 5577 5580 5582 5585 5587 5589 5591 5593 5596 5597 5599 5600 5601 5601
5506 5508 5508 5508 5509 5511 5512 5513 5514 5515 5517 5519 5520 5522 5524 5526 5528 5530 5533 5535 5538 5541 5544 5546 5549 5553 5556 5559 5562 5565 5568 5571 5574 5576 5578 5581 5583 5585 5586 5588 5590 5591 5591 5592
5500 5501 5502 5503 5503 5504 5505 5506 5507 5509 5510 5512 5514 5515 5517 5518 5520 5523 5525 5528 5530 5533 5536 5539 5542 5545 5548 5551 5554 5557 5560 5563 5565 5568 5570 5572 5574 5576 5577 5579 5580 5581 5582 5583
5496 5496 5497 5497 5498 5498 5499 5500 5501 5502 5503 5505 5507 5508 5510 5511 5513 5516 5518 5520 5523 5526 5528 5531 5534 5537 5540 5543 5546 5549 5552 5554 5557 5559 5561 5563 5565 5567 5568 5570 5571 5572 5573 5573
5491 5491 5492 5492 5492 5492 5493 5494 5495 5496 5497 5498 5500 5501 5503 5505 5507 5509 5511 5513 5515 5518 5521 5524 5527 5530 5533 5536 5539 5542 5544 5546 5549 5551 5553 5555 5556 5558 5559 5561 5562 5562 5563 5563
5486 5486 5486 5486 5487 5487 5487 5488 5489 5490 5491 5492 5493 5495 5496 5498 5500 5502 5504 5506 5508 5511 5514 5517 5520 5523 5525 5528 5531 5534 5536 5538 5540 5543 5544 5546 5548 5549 5551 5552 5552 5553 5554 5554
5480 5481 5481 5481 5482 5482 5482 5483 5483 5484 5485 5486 5487 5489 5490 5492 5494 5495 5497 5499 5502 5504 5507 5510 5513 5516 5518 5521 5523 5526 5528 5530 5532 5534 5536 5538 5539 5541 5542 5543 5544 5544 5545 5545
5475 5476 5476 5476 5477 5477 5477 5477 5478 5479 5479 5480 5481 5483 5484 5486 5487 5489 5490 5492 5494 5497 5500 5503 5505 5508 5510 5513 5515 5518 5520 5522 5524 5526 5528 5529 5531 5532 5533 5534 5536 5537 5537 5537
5471 5471 5471 5472 5472 5472 5472 5472 5473 5473 5474 5475 5476 5477 5478 5479 5481 5482 5484 5486 5488 5490 5492 5495 5497 5500 5502 5504 5507 5509 5512 5514 5516 5518 5520 5521 5523 5524 5526 5527 5528 5529 5529 5530
5466 5466 5466 5466 5466 5466 5466 5467 5467 5468 5469 5469 5470 5471 5472 5473 5475 5476 5477 5479 5481 5483 5485 5487 5490 5492 5494 5496 5499 5501 5504 5506 5508 5510 5512 5514 5515 5517 5518 5520 5521 5522 5522 5523
5461 5461 5461 5461 5461 5461 5461 5461 5461 5462 5463 5464 5465 5466 5467 5467 5468 5470 5471 5472 5474 5476 5477 5480 5482 5484 5487 5489 5491 5494 5496 5499 5501 5503 5505 5507 5508 5510 5512 5513 5514 5515 5516 5516
5456 5455 5455 5455 5455 5455 5455 5455 5456 5456 5457 5458 5459 5460 5461 5461 5462 5463 5464 5466 5467 5468 5470 5472 5474 5477 5479 5482 5484 5486 5489 5491 5493 5496 5498 5500 5502 5503 5505 5507 5508 5509 5510 5510
5450 5450 5450 5449 5449 5449 5449 5449 5449 5450 5451 5451 5452 5453 5454 5455 5456 5457 5458 5459 5460 5461 5462 5464 5467 5469 5472 5474 5477 5479 5481 5484 5486 5489 5491 5493 5495 5497 5498 5500 5501 5503 5504 5504
5445 5445 5444 5444 5444 5443 5443 5443 5443 5443 5444 5445 5446 5447 5448 5448 5449 5450 5451 5453 5454 5454 5456 5458 5460 5462 5464 5467 5469 5472 5474 5477 5480 5482 5484 5486 5488 5490 5492 5493 5495 5496 5497 5498
5440 5439 5439 5438 5438 5438 5437 5437 5437 5437 5437 5438 5439 5440 5441 5442 5443 5444 5445 5446 5447 5448 5450 5451 5453 5455 5458 5460 5462 5465 5467 5470 5472 5475 5477 5479 5481 5483 5485 5487 5488 5490 5491 5492
5434 5434 5433 5433 5432 5432 5432 5431 5431 5431 5431 5432 5432 5433 5434 5435 5436 5438 5439 5440 5441 5443 5444 5445 5447 5449 5451 5454 5456 5458 5461 5463 5466 5468 5471 5473 5475 5477 5479 5481 5482 5483 5484 5485
5429 5428 5428 5427 5427 5426 5426 5426 5426 5426 5426 5426 5427 5427 5428 5429 5430 5431 5433 5434 5435 5437 5438 5440 5441 5443 5445 5447 5450 5452 5454 5457 5459 5462 5464 5467 5469 5471 5473 5474 5476 5477 5478 5479
5423 5423 5422 5422 5422 5421 5421 5420 5420 5420 5420 5420 5421 5421 5422 5423 5424 5425 5427 5428 5429 5431 5432 5434 5436 5438 5440 5442 5444 5446 5448 5450 5453 5456 5458 5461 5463 5465 5467 5468 5470 5471 5472 5473
5417 5417 5417 5417 5416 5416 5416 5415 5415 5415 5415 5416 5416 5416 5417 5417 5418 5420 5421 5422 5424 5425 5427 5429 5430 5432 5434 5436 5438 5440 5442 5445 5447 5450 5452 5455 5457 5459 5460 5462 5464 5465 5466 5467
5411 5411 5411 5411 5411 5411 5411 5411 5411 5411 5411 5411 5411 5412 5412 5413 5414 5415 5416 5417 5418 5420 5422 5424 5425 5427 5429 5431 5433 5435 5437 5439 5442 5444 5447 5449 5451 5453 5454 5456 5457 5458 5460 5461